Regional Weather Roundup
Issued by NWS

Home | Current Version | Previous Version | Text Only | Print | Product List | Glossary On
Versions: 1 2 3 4 5 6 7 8 9 10 11 12 13 14 15 16 17 18 19 20 21 22 23 24 25 26 27 28 29 30 31 32 33 34 35 36 37 38 39 40 41 42 43 44 45 46 47 48 49 50
865
ASUS46 KPQR 271710
RWROR

OREGON REGIONAL WEATHER ROUNDUP
NATIONAL WEATHER SERVICE PORTLAND OR
1000 AM PDT MON MAR 27 2017

NOTE: "FAIR" INDICATES FEW OR NO CLOUDS BELOW 12,000 FEET WITH
NO SIGNIFICANT WEATHER AND/OR OBSTRUCTIONS TO VISIBILITY.

ORZ001>013-271800-
NORTHWEST OREGON


CITY           SKY/WX    TMP DP  RH WIND       PRES   REMARKS
ASTORIA        PTSUNNY   49  44  83 SW5       30.07R
NEWPORT        CLOUDY    50  43  76 SW8       30.19R
PORTLAND       PTSUNNY   49  43  80 SW10      30.14R
VANCOUVER WA   CLOUDY    49  44  83 S8        30.14R
SCAPPOOSE      CLOUDY    49  44  83 SE7       30.13R
HILLSBORO      CLOUDY    48  43  82 S8        30.13R
AURORA         CLOUDY    48  42  80 S13       30.16R
MCMINNVILLE    PTSUNNY   48  44  86 SW10      30.15R
SALEM          PTSUNNY   48  41  76 SW15      30.16R
CORVALLIS      CLOUDY    50  45  81 S5        30.17R
EUGENE         PTSUNNY   48  44  86 S10       30.19R
$$

ORZ021-028-271800-
SOUTHWEST OREGON


CITY           SKY/WX    TMP DP  RH WIND       PRES   REMARKS
NORTH BEND     PTSUNNY   50  43  76 W8        30.23R
BROOKINGS      LGT RAIN  47  45  93 W3        30.26R FOG
ROSEBURG       CLOUDY    48  42  80 S6        30.21R
SEXTON SUMMIT  FOG       32  32 100 SW5       30.13R VSB 1/2 WCI  27
MEDFORD        PTSUNNY   47  40  76 N3        30.20R
$$

ORZ014>016-041-271800-
COLUMBIA GORGE


CITY           SKY/WX    TMP DP  RH WIND       PRES   REMARKS
TROUTDALE      CLOUDY    49  43  80 SW10      30.14R
HOOD RIVER     MOSUNNY   48  41  76 CALM      30.10R
THE DALLES     MOSUNNY   49  43  80 CALM      30.10R
$$

ORZ029>031-041-044-049-050-061>064-502-503-505>511-271800-
EASTERN OREGON


CITY           SKY/WX    TMP DP  RH WIND       PRES   REMARKS
REDMOND        MOSUNNY   43  28  55 NW5       30.07R
BEND           MOSUNNY   43  30  61 SW13      30.06R
PRINEVILLE     PTSUNNY   43  30  61 W8        30.06R
KLAMATH FALLS  LGT SNOW  37  32  82 CALM      30.11R
LAKEVIEW       CLOUDY    34  27  75 SW7       30.10S WCI  28
HERMISTON      MOSUNNY   52  42  69 W16       30.05R
PENDLETON      SUNNY     50  39  66 W14G24    30.04R
JOHN DAY       SUNNY     43  36  76 CALM      30.05R
MEACHAM        CLOUDY    39  32  76 VRB3      30.02R
LA GRANDE      MOSUNNY   48  36  61 W10G16    30.03R
BAKER CITY     MOSUNNY   43  34  70 VRB3      30.02R
BURNS          MOSUNNY   40  30  67 VRB7      30.05R
ROME             N/A     44  30  57 N5        30.03R
ONTARIO        MOSUNNY   50  37  61 W8        30.04R
$$




USA.gov is the U.S. government's official web portal to all federal, state and local government web resources and services.